Regional Weather Roundup
Issued by NWS

Home | Current Version | Previous Version | Text Only | Print | Product List | Glossary Off
Versions: 1 2 3 4 5 6 7 8 9 10 11 12 13 14 15 16 17 18 19 20 21 22 23 24 25 26 27 28 29 30 31 32 33 34 35 36 37 38 39 40 41 42 43 44 45 46 47 48 49 50

000
ASUS45 KBOI 280810
RWRID
WEATHER ROUNDUP FOR IDAHO
NATIONAL WEATHER SERVICE BOISE ID
200 AM MDT MON JUL 28 2014

NOTE: "FAIR" INDICATES FEW OR NO CLOUDS BELOW 12000 FEET
WITH NO SIGNIFICANT WEATHER AND/OR OBSTRUCTIONS TO VISIBILITY

IDZ012-014-280900-
SOUTHWEST IDAHO


CITY           SKY/WX    TMP DP  RH WIND       PRES   REMARKS
BOISE          MOCLDY    79  40  24 S5        30.01R
CALDWELL       MOCLDY    72  50  46 CALM      30.01S
MOUNTAIN HOME  CLOUDY    89  34  14 NW6       30.01S
$$

IDZ016-017-280900-
SOUTHCENTRAL IDAHO


CITY           SKY/WX    TMP DP  RH WIND       PRES   REMARKS
BURLEY         PTCLDY    66  52  60 CALM      30.10R
JEROME         CLOUDY    75  49  39 W3        30.10S
TWIN FALLS     MOCLDY    79  35  20 S12       30.10S
$$

IDZ019>023-280900-
SOUTHEAST IDAHO


CITY           SKY/WX    TMP DP  RH WIND       PRES   REMARKS
IDAHO FALLS    CLEAR     55  44  66 N7        30.19S
POCATELLO      CLEAR     65  40  39 NW9       30.14S
REXBURG        CLEAR     56  43  61 NE7       30.21F
$$

IDZ006-010-011-018-031-032-280900-
CENTRAL IDAHO MOUNTAINS


CITY           SKY/WX    TMP DP  RH WIND       PRES   REMARKS
MCCALL         MOCLDY    71  35  26 NW3       30.20F
HAILEY         CLOUDY    81  37  21 N5        30.21F
STANLEY          N/A     56  30  37 S3        30.34R
SALMON         NOT AVBL
CHALLIS        PTCLDY    66  31  27 CALM      30.22R
$$

IDZ002-004-006-007-026-280900-
NORTHERN IDAHO


CITY           SKY/WX    TMP DP  RH WIND       PRES   REMARKS
LEWISTON       MOCLDY    80  40  23 CALM      30.02R
LOWELL           N/A     63  54  72 CALM      30.09R
COEUR D`ALENE  MOCLDY    61  48  63 NW3       30.11R
MULLAN PASS    CLOUDY    66  36  32 SE7       30.33S
$$



USA.gov is the U.S. government's official web portal to all federal, state and local government web resources and services.